H1 CPF 2 NER 2021 7 8 9 189 01 glonass128 H2 1106401 9128 37867 2021 7 8 0 0 0 2021 7 11 23 45 0 900 1 1 0 0 0 1 H9 10 0 59403 0.00000 0 17306058.599 15093888.248 -11006934.022 10 0 59403 900.00000 0 15979182.715 14314041.200 -13715207.402 10 0 59403 1800.00000 0 14304697.607 13513128.131 -16155633.296 10 0 59403 2700.00000 0 12309013.607 12747275.719 -18280498.500 10 0 59403 3600.00000 0 10030544.491 12067847.883 -20048277.102 10 0 59403 4500.00000 0 7518333.782 11519169.351 -21424455.735 10 0 59403 5400.00000 0 4830237.043 11136566.929 -22382216.403 10 0 59403 6300.00000 0 2030736.686 10944812.803 -22902962.838 10 0 59403 7200.00000 0 -811518.163 10957036.367 -22976679.973 10 0 59403 8100.00000 0 -3626342.803 11174150.566 -22602119.948 10 0 59403 9000.00000 0 -6344708.164 11584816.279 -21786811.835 10 0 59403 9900.00000 0 -8901378.912 12165944.980 -20546896.045 10 0 59403 10800.00000 0 -11237388.205 12883716.678 -18906788.096 10 0 59403 11700.00000 0 -13302246.309 13695068.227 -16898679.854 10 0 59403 12600.00000 0 -15055791.986 14549587.091 -14561889.616 10 0 59403 13500.00000 0 -16469611.333 15391728.785 -11942075.321 10 0 59403 14400.00000 0 -17527967.301 16163262.842 -9090327.685 10 0 59403 15300.00000 0 -18228204.035 16805842.995 -6062162.300 10 0 59403 16200.00000 0 -18580612.446 17263592.606 -2916431.365 10 0 59403 17100.00000 0 -18607765.989 17485596.391 285823.068 10 0 59403 18000.00000 0 -18343357.591 17428193.967 3482551.575 10 0 59403 18900.00000 0 -17830589.202 17056979.721 6611892.693 10 0 59403 19800.00000 0 -17120183.550 16348426.108 9613358.459 10 0 59403 20700.00000 0 -16268102.736 15291063.654 12428988.010 10 0 59403 21600.00000 0 -15333069.814 13886169.362 15004448.361 10 0 59403 22500.00000 0 -14373996.847 12147935.589 17290062.769 10 0 59403 23400.00000 0 -13447426.162 10103112.737 19241748.693 10 0 59403 24300.00000 0 -12605090.419 7790140.295 20821849.310 10 0 59403 25200.00000 0 -11891691.794 5257801.362 21999844.491 10 0 59403 26100.00000 0 -11342991.411 2563454.827 22752929.156 10 0 59403 27000.00000 0 -10984287.440 -229083.819 23066449.171 10 0 59403 27900.00000 0 -10829344.525 -3051928.038 22934187.067 10 0 59403 28800.00000 0 -10879819.057 -5835676.295 22358492.109 10 0 59403 29700.00000 0 -11125204.831 -8512035.716 21350251.594 10 0 59403 30600.00000 0 -11543302.598 -11016407.352 19928702.620 10 0 59403 31500.00000 0 -12101195.714 -13290327.838 18121086.098 10 0 59403 32400.00000 0 -12756693.220 -15283667.536 15962147.466 10 0 59403 33300.00000 0 -13460182.136 -16956494.332 13493491.201 10 0 59403 34200.00000 0 -14156813.255 -18280525.135 10762799.230 10 0 59403 35100.00000 0 -14788930.123 -19240103.601 7822926.131 10 0 59403 36000.00000 0 -15298639.736 -19832661.713 4730886.845 10 0 59403 36900.00000 0 -15630416.525 -20068644.110 1546755.473 10 0 59403 37800.00000 0 -15733628.695 -19970896.686 -1667503.951 10 0 59403 38700.00000 0 -15564878.325 -19573543.753 -4849251.689 10 0 59403 39600.00000 0 -15090053.713 -18920400.210 -7936406.845 10 0 59403 40500.00000 0 -14286004.135 -18062985.507 -10868676.625 10 0 59403 41400.00000 0 -13141762.972 -17058223.810 -13588754.432 10 0 59403 42300.00000 0 -11659264.423 -15965928.743 -16043461.090 10 0 59403 43200.00000 0 -9853520.805 -14846180.771 -18184804.855 10 0 59403 44100.00000 0 -7752250.811 -13756710.132 -19970937.467 10 0 59403 45000.00000 0 -5394972.980 -12750398.043 -21366985.897 10 0 59403 45900.00000 0 -2831601.828 -11873003.675 -22345742.401 10 0 59403 46800.00000 0 -120605.534 -11161214.342 -22888198.735 10 0 59403 47700.00000 0 2673196.957 -10641102.083 -22983913.944 10 0 59403 48600.00000 0 5481106.337 -10327051.891 -22631208.962 10 0 59403 49500.00000 0 8233176.571 -10221206.166 -21837184.985 10 0 59403 50400.00000 0 10860900.775 -10313447.518 -20617566.442 10 0 59403 51300.00000 0 13299836.710 -10581918.778 -18996373.029 10 0 59403 52200.00000 0 15492062.309 -10994055.986 -17005428.725 10 0 59403 53100.00000 0 17388359.312 -11508088.390 -14683719.061 10 0 59403 54000.00000 0 18950035.197 -12074939.758 -12076610.732 10 0 59403 54900.00000 0 20150309.328 -12640448.642 -9234950.260 10 0 59403 55800.00000 0 20975207.861 -13147812.204 -6214060.645 10 0 59403 56700.00000 0 21423932.998 -13540149.320 -3072656.589 10 0 59403 57600.00000 0 21508694.278 -13763074.268 128299.858 10 0 59403 58500.00000 0 21254012.007 -13767172.569 3326780.528 10 0 59403 59400.00000 0 20695524.876 -13510275.215 6460886.363 10 0 59403 60300.00000 0 19878353.923 -12959436.553 9470033.968 10 0 59403 61200.00000 0 18855093.040 -12092533.882 12296111.328 10 0 59403 62100.00000 0 17683510.930 -10899422.805 14884581.704 10 0 59403 63000.00000 0 16424060.727 -9382600.875 17185516.077 10 0 59403 63900.00000 0 15137300.690 -7557352.341 19154536.023 10 0 59403 64800.00000 0 13881332.428 -5451367.849 20753650.877 10 0 59403 65700.00000 0 12709361.882 -3103854.144 21951975.007 10 0 59403 66600.00000 0 11667483.001 -564169.347 22726312.974 10 0 59403 67500.00000 0 10792774.759 2109961.734 23061602.647 10 0 59403 68400.00000 0 10111789.468 4854580.955 22951208.452 10 0 59403 69300.00000 0 9639494.608 7601893.387 22397059.159 10 0 59403 70200.00000 0 9378712.120 10282830.888 21409626.994 10 0 59403 71100.00000 0 9320079.143 12829679.368 20007747.168 10 0 59403 72000.00000 0 9442533.055 15178663.114 18218279.521 10 0 59403 72900.00000 0 9714302.202 17272380.693 16075616.550 10 0 59403 73800.00000 0 10094362.802 19061992.074 13621044.818 10 0 59403 74700.00000 0 10534302.807 20509065.881 10901969.700 10 0 59403 75600.00000 0 10980516.030 21587009.000 7971016.210 10 0 59403 76500.00000 0 11376635.200 22282017.355 4885021.508 10 0 59403 77400.00000 0 11666101.665 22593506.166 1703937.525 10 0 59403 78300.00000 0 11794762.649 22533999.706 -1510335.488 10 0 59403 79200.00000 0 11713384.801 22128483.367 -4695161.574 10 0 59403 80100.00000 0 11379975.493 21413243.907 -7788403.209 10 0 59403 81000.00000 0 10761810.788 20434246.017 -10729651.433 10 0 59403 81900.00000 0 9837081.091 19245113.607 -13461426.042 10 0 59403 82800.00000 0 8596081.661 17904801.691 -15930320.175 10 0 59403 83700.00000 0 7041894.695 16475058.504 -18088064.818 10 0 59403 84600.00000 0 5190531.599 15017786.666 -19892490.421 10 0 59403 85500.00000 0 3070527.639 13592416.801 -21308365.128 10 0 59404 0.00000 0 722004.896 12253406.244 -22308092.081 10 0 59404 900.00000 0 -1804757.901 11047970.086 -22872251.530 10 0 59404 1800.00000 0 -4451187.526 10014140.468 -22989976.873 10 0 59404 2700.00000 0 -7152632.859 9179237.703 -22659157.787 10 0 59404 3600.00000 0 -9840841.378 8558815.339 -21886467.252 10 0 59404 4500.00000 0 -12446591.313 8156123.750 -20687213.007 10 0 59404 5400.00000 0 -14902368.643 7962112.285 -19085017.832 10 0 59404 6300.00000 0 -17144976.756 7955967.646 -17111336.377 10 0 59404 7200.00000 0 -19117969.839 8106163.095 -14804819.641 10 0 59404 8100.00000 0 -20773809.174 8371971.412 -12210541.068 10 0 59404 9000.00000 0 -22075653.679 8705375.193 -9379100.810 10 0 59404 9900.00000 0 -22998711.782 9053291.604 -6365626.996 10 0 59404 10800.00000 0 -23531100.664 9360015.930 -3228694.507 10 0 59404 11700.00000 0 -23674179.692 9569779.687 -29183.033 10 0 59404 12600.00000 0 -23442346.961 9629314.886 3170902.894 10 0 59404 13500.00000 0 -22862310.251 9490316.451 6309629.025 10 0 59404 14400.00000 0 -21971865.269 9111699.726 9326318.955 10 0 59404 15300.00000 0 -20818234.124 8461559.050 12162711.940 10 0 59404 16200.00000 0 -19456034.688 7518746.256 14764069.878 10 0 59404 17100.00000 0 -17944965.958 6274003.885 17080213.780 10 0 59404 18000.00000 0 -16347305.754 4730606.437 19066471.489 10 0 59404 18900.00000 0 -14725323.950 2904483.031 20684520.436 10 0 59404 19800.00000 0 -13138717.473 823815.888 21903111.129 10 0 59404 20700.00000 0 -11642171.984 -1471869.769 22698659.069 10 0 59404 21600.00000 0 -10283149.741 -3933088.504 23055695.052 10 0 59404 22500.00000 0 -9099993.931 -6502195.254 22967165.921 10 0 59404 23400.00000 0 -8120427.015 -9115531.896 22434580.065 10 0 59404 24300.00000 0 -7360504.855 -11705833.924 21467994.330 10 0 59404 25200.00000 0 -6824070.085 -14204800.521 20085841.341 10 0 59404 26100.00000 0 -6502728.168 -16545723.982 18314598.755 10 0 59404 27000.00000 0 -6376348.305 -18666071.389 16188304.636 10 0 59404 27900.00000 0 -6414069.791 -20509912.507 13747925.797 10 0 59404 28800.00000 0 -6575773.396 -22030093.072 11040588.915 10 0 59404 29700.00000 0 -6813957.569 -23190062.357 8118687.040 10 0 59404 30600.00000 0 -7075941.709 -23965277.332 5038876.941 10 0 59404 31500.00000 0 -7306304.242 -24344122.745 1860985.628 10 0 59404 32400.00000 0 -7449452.364 -24328306.361 -1353153.291 10 0 59404 33300.00000 0 -7452213.748 -23932710.597 -4540910.578 10 0 59404 34200.00000 0 -7266338.720 -23184704.879 -7640095.083 10 0 59404 35100.00000 0 -6850804.439 -22122946.334 -10590184.690 10 0 59404 36000.00000 0 -6173820.503 -20795718.696 -13333528.586 10 0 59404 36900.00000 0 -5214447.922 -19258879.538 -15816495.120 10 0 59404 37800.00000 0 -3963759.858 -17573503.216 -17990540.718 10 0 59404 38700.00000 0 -2425492.282 -15803320.241 -19813176.957 10 0 59404 39600.00000 0 -616154.885 -14012062.751 -21248815.192 10 0 59404 40500.00000 0 1435403.982 -12260829.717 -22269471.035 10 0 59404 41400.00000 0 3688960.928 -10605584.399 -22855314.249 10 0 59404 42300.00000 0 6094369.274 -9094890.601 -22995053.089 10 0 59404 43200.00000 0 8593437.638 -7767983.446 -22686145.993 10 0 59404 44100.00000 0 11122155.855 -6653255.567 -21934837.217 10 0 59404 45000.00000 0 13613173.936 -5767221.364 -20756016.858 10 0 59404 45900.00000 0 15998429.433 -5114001.088 -19172909.404 10 0 59404 46800.00000 0 18211812.637 -4685344.012 -17216598.393 10 0 59404 47700.00000 0 20191757.806 -4461186.880 -14925398.108 10 0 59404 48600.00000 0 21883652.350 -4410721.037 -12344086.157 10 0 59404 49500.00000 0 23241964.129 -4493920.178 -9523013.346 10 0 59404 50400.00000 0 24231999.250 -4663461.560 -6517109.622 10 0 59404 51300.00000 0 24831218.875 -4866957.263 -3384806.455 10 0 59404 52200.00000 0 25030062.303 -5049399.635 -186897.429 10 0 59404 53100.00000 0 24832244.449 -5155716.707 3014640.330 10 0 59404 54000.00000 0 24254517.876 -5133329.427 6157841.034 10 0 59404 54900.00000 0 23325911.689 -4934603.191 9181938.681 10 0 59404 55800.00000 0 22086481.021 -4519091.176 12028526.848 10 0 59404 56700.00000 0 20585620.706 -3855476.183 14642668.698 10 0 59404 57600.00000 0 18880014.078 -2923130.503 16973937.415 10 0 59404 58500.00000 0 17031302.333 -1713229.369 18977368.767 10 0 59404 59400.00000 0 15103570.641 -229371.908 20614309.444 10 0 59404 60300.00000 0 13160754.119 1512316.466 21853146.788 10 0 59404 61200.00000 0 11264069.675 3483605.184 22669907.485 10 0 59404 62100.00000 0 9469578.312 5645087.208 23048715.062 10 0 59404 63000.00000 0 7825977.075 7947578.862 22982098.145 10 0 59404 63900.00000 0 6372710.665 10333935.347 22471143.698 10 0 59404 64800.00000 0 5138479.883 12741209.650 21525491.748 10 0 59404 65700.00000 0 4140208.267 15103068.348 20163170.511 10 0 59404 66600.00000 0 3382510.049 17352366.808 18410273.328 10 0 59404 67500.00000 0 2857682.235 19423779.154 16300481.418 10 0 59404 68400.00000 0 2546222.297 21256375.215 13874439.216 10 0 59404 69300.00000 0 2417851.332 22796037.782 11178991.908 10 0 59404 70200.00000 0 2433001.238 23997619.117 8266297.667 10 0 59404 71100.00000 0 2544704.693 24826745.501 5192829.905 10 0 59404 72000.00000 0 2700809.155 25261192.415 2018287.719 10 0 59404 72900.00000 0 2846421.597 25291770.430 -1195564.865 10 0 59404 73800.00000 0 2926480.031 24922682.131 -4386108.153 10 0 59404 74700.00000 0 2888341.578 24171332.735 -7491099.994 10 0 59404 75600.00000 0 2684275.338 23067600.455 -10449907.485 10 0 59404 76500.00000 0 2273751.760 21652596.042 -13204711.256 10 0 59404 77400.00000 0 1625428.516 19976963.210 -15701656.586 10 0 59404 78300.00000 0 718745.702 18098791.751 -17891926.729 10 0 59404 79200.00000 0 -454939.993 16081232.105 -19732715.471 10 0 59404 80100.00000 0 -1891732.524 13989913.206 -21188078.176 10 0 59404 81000.00000 0 -3575113.274 11890273.873 -22229643.460 10 0 59404 81900.00000 0 -5476402.052 9844921.504 -22837170.903 10 0 59404 82800.00000 0 -7555743.332 7911130.444 -22998943.653 10 0 59404 83700.00000 0 -9763576.102 6138585.832 -22711988.635 10 0 59404 84600.00000 0 -12042524.992 4567467.677 -21982120.778 10 0 59404 85500.00000 0 -14329632.285 3226954.932 -20823811.581 10 0 59405 0.00000 0 -16558836.261 2134210.749 -19259885.953 10 0 59405 900.00000 0 -18663591.112 1293889.419 -17321054.557 10 0 59405 1800.00000 0 -20579518.093 698182.384 -15045293.023 10 0 59405 2700.00000 0 -22246976.279 327399.152 -12477080.904 10 0 59405 3600.00000 0 -23613446.431 151054.133 -9666517.304 10 0 59405 4500.00000 0 -24635628.254 129411.366 -6668331.520 10 0 59405 5400.00000 0 -25281165.128 215418.721 -3540809.115 10 0 59405 6300.00000 0 -25529925.843 356947.864 -344655.048 10 0 59405 7200.00000 0 -25374791.909 499243.869 2858183.495 10 0 59405 8100.00000 0 -24821919.787 587480.289 6005711.719 10 0 59405 9000.00000 0 -23890469.309 569311.754 9037076.558 10 0 59405 9900.00000 0 -22611811.544 397317.041 11893728.400 10 0 59405 10800.00000 0 -21028250.598 31230.660 14520534.085 10 0 59405 11700.00000 0 -19191313.455 -560129.747 16866821.237 10 0 59405 12600.00000 0 -17159679.160 -1397319.941 18887335.591 10 0 59405 13500.00000 0 -14996832.865 -2489173.415 20543094.858 10 0 59405 14400.00000 0 -12768540.879 -3832198.993 21802124.621 10 0 59405 15300.00000 0 -10540249.775 -5410497.094 22640063.771 10 0 59405 16200.00000 0 -8374515.254 -7196199.272 23040629.156 10 0 59405 17100.00000 0 -6328565.168 -9150414.444 22995931.361 10 0 59405 18000.00000 0 -4452095.751 -11224644.753 22506635.688 10 0 59405 18900.00000 0 -2785390.718 -13362615.143 21581964.742 10 0 59405 19800.00000 0 -1357840.170 -15502443.669 20239541.381 10 0 59405 20700.00000 0 -186920.467 -17579065.224 18505073.338 10 0 59405 21600.00000 0 722322.322 -19526810.434 16411883.392 10 0 59405 22500.00000 0 1377263.079 -21282034.340 14000291.708 10 0 59405 23400.00000 0 1797161.532 -22785686.278 11316859.825 10 0 59405 24300.00000 0 2012120.523 -23985713.871 8413508.661 10 0 59405 25200.00000 0 2061581.008 -24839199.785 5346525.711 10 0 59405 26100.00000 0 1992416.107 -25314140.098 2175479.486 10 0 59405 27000.00000 0 1856704.097 -25390787.408 -1037938.330 10 0 59405 27900.00000 0 1709274.655 -25062499.642 -4231120.375 10 0 59405 28800.00000 0 1605133.094 -24336056.167 -7341776.293 10 0 59405 29700.00000 0 1596873.420 -23231425.499 -10309165.169 10 0 59405 30600.00000 0 1732192.136 -21780992.428 -13075301.803 10 0 59405 31500.00000 0 2051610.926 -20028275.970 -15586111.011 10 0 59405 32400.00000 0 2586507.622 -18026191.620 -17792505.308 10 0 59405 33300.00000 0 3357541.723 -15834931.379 -19651362.867 10 0 59405 34200.00000 0 4373543.583 -13519551.668 -21126384.898 10 0 59405 35100.00000 0 5630916.233 -11147371.856 -22188814.462 10 0 59405 36000.00000 0 7113576.489 -8785294.108 -22818001.951 10 0 59405 36900.00000 0 8793438.463 -6497158.445 -23001805.940 10 0 59405 37800.00000 0 10631419.154 -4341244.913 -22736821.912 10 0 59405 38700.00000 0 12578923.306 -2368027.890 -22028435.143 10 0 59405 39600.00000 0 14579744.125 -618276.357 -20890697.790 10 0 59405 40500.00000 0 16572298.904 878421.457 -19346033.996 10 0 59405 41400.00000 0 18492104.606 2104649.205 -17424780.243 10 0 59405 42300.00000 0 20274388.471 3055630.329 -15164571.593 10 0 59405 43200.00000 0 21856723.580 3739156.290 -12609587.342 10 0 59405 44100.00000 0 23181578.698 4174981.591 -9809672.297 10 0 59405 45000.00000 0 24198675.800 4393714.448 -6819352.182 10 0 59405 45900.00000 0 24867057.419 4435253.074 -3696763.422 10 0 59405 46800.00000 0 25156778.559 4346836.248 -502518.922 10 0 59405 47700.00000 0 25050154.039 4180792.438 2701467.586 10 0 59405 48600.00000 0 24542511.066 3992083.840 5853175.787 10 0 59405 49500.00000 0 23642417.505 3835749.477 8891668.868 10 0 59405 50400.00000 0 22371378.152 3764355.002 11758257.114 10 0 59405 51300.00000 0 20763013.101 3825555.942 14397613.784 10 0 59405 52200.00000 0 18861753.323 4059875.768 16758823.324 10 0 59405 53100.00000 0 16721108.034 4498790.897 18796343.420 10 0 59405 54000.00000 0 14401575.377 5163201.797 20470864.373 10 0 59405 54900.00000 0 11968281.979 6062353.454 21750051.169 10 0 59405 55800.00000 0 9488447.599 7193250.048 22609155.621 10 0 59405 56700.00000 0 7028777.739 8540588.756 23031488.208 10 0 59405 57600.00000 0 4652889.826 10077216.645 23008741.359 10 0 59405 58500.00000 0 2418877.300 11765093.494 22541158.134 10 0 59405 59400.00000 0 377110.433 13556722.978 21637542.659 10 0 59405 60300.00000 0 -1431636.527 15396995.490 20315110.915 10 0 59405 61200.00000 0 -2977655.028 17225368.786 18599183.083 10 0 59405 62100.00000 0 -4243307.914 18978298.378 16522721.185 10 0 59405 63000.00000 0 -5223528.869 20591818.565 14125718.487 10 0 59405 63900.00000 0 -5925793.771 22004167.811 11454450.028 10 0 59405 64800.00000 0 -6369563.952 23158349.325 8560596.465 10 0 59405 65700.00000 0 -6585223.308 24004519.239 5500256.280 10 0 59405 66600.00000 0 -6612552.749 24502100.882 2332864.275 10 0 59405 67500.00000 0 -6498805.467 24621534.315 -879963.298 10 0 59405 68400.00000 0 -6296464.093 24345584.885 -4075634.403 10 0 59405 69300.00000 0 -6060775.071 23670152.874 -7191813.313 10 0 59405 70200.00000 0 -5847165.887 22604547.336 -10167653.709 10 0 59405 71100.00000 0 -5708656.513 21171210.106 -12945006.867 10 0 59405 72000.00000 0 -5693377.158 19404899.801 -15469579.139 10 0 59405 72900.00000 0 -5842300.270 17351369.020 -17692013.948 10 0 59405 73800.00000 0 -6187285.602 15065590.071 -19568875.169 10 0 59405 74700.00000 0 -6749523.628 12609604.234 -21063510.848 10 0 59405 75600.00000 0 -7538445.262 10050085.825 -22146779.177 10 0 59405 76500.00000 0 -8551145.449 7455724.531 -22797621.759 10 0 59405 77400.00000 0 -9772345.780 4894537.150 -23003472.691 10 0 59405 78300.00000 0 -11174897.849 2431222.455 -22760495.808 10 0 59405 79200.00000 0 -12720805.671 124670.544 -22073646.164 10 0 59405 80100.00000 0 -14362723.164 -1974268.979 -20956555.660 10 0 59405 81000.00000 0 -16045862.418 -3824667.390 -19431246.416 10 0 59405 81900.00000 0 -17710231.180 -5396968.661 -17527679.005 10 0 59405 82800.00000 0 -19293104.190 -6673954.128 -15283145.993 10 0 59405 83700.00000 0 -20731623.512 -7651182.555 -12741524.201 10 0 59405 84600.00000 0 -21965418.040 -8336890.471 -9952401.735 10 0 59405 85500.00000 0 -22939131.992 -8751360.468 -6970098.204 10 0 59406 0.00000 0 -23604756.714 -8925787.507 -3852598.348 10 0 59406 900.00000 0 -23923668.531 -8900694.113 -660420.222 10 0 59406 1800.00000 0 -23868289.442 -8723963.663 2544558.539 10 0 59406 2700.00000 0 -23423300.995 -8448576.771 5700294.814 10 0 59406 3600.00000 0 -22586364.121 -8130147.022 8745770.761 10 0 59406 4500.00000 0 -21368315.148 -7824360.353 11622159.227 10 0 59406 5400.00000 0 -19792831.816 -7584425.463 14273942.468 10 0 59406 6300.00000 0 -17895583.914 -7458641.549 16649964.144 10 0 59406 7200.00000 0 -15722904.329 -7488184.323 18704396.042 10 0 59406 8100.00000 0 -13330035.385 -7705201.816 20397602.876 10 0 59406 9000.00000 0 -10779022.163 -8131298.600 21696890.476 10 0 59406 9900.00000 0 -8136338.576 -8776471.051 22577124.606 10 0 59406 10800.00000 0 -5470342.283 -9638537.992 23021209.960 10 0 59406 11700.00000 0 -2848661.328 -10703091.044 23020420.945 10 0 59406 12600.00000 0 -335618.152 -11943968.026 22574578.125 10 0 59406 13500.00000 0 2010204.763 -13324231.677 21692066.516 10 0 59406 14400.00000 0 4138158.790 -14797615.377 20389694.263 10 0 59406 15300.00000 0 6007392.909 -16310378.347 18692392.714 10 0 59406 16200.00000 0 7588310.626 -17803495.660 16632761.546 10 0 59406 17100.00000 0 8863559.459 -19215094.071 14250465.247 10 0 59406 18000.00000 0 9828510.991 -20483033.608 11591490.178 10 0 59406 18900.00000 0 10491210.339 -21547527.862 8707274.279 10 0 59406 19800.00000 0 10871795.823 -22353693.212 5653724.324 10 0 59406 20700.00000 0 11001411.755 -22853918.981 2490138.528 10 0 59406 21600.00000 0 10920659.111 -23009957.134 -721945.276 10 0 59406 22500.00000 0 10677648.782 -22794641.047 -3919953.407 10 0 59406 23400.00000 0 10325739.713 -22193158.009 -7041507.771 10 0 59406 24300.00000 0 9921058.398 -21203818.792 -10025659.556 10 0 59406 25200.00000 0 9519906.233 -19838288.945 -12814099.301 10 0 59406 26100.00000 0 9176166.605 -18121269.676 -15352317.483 10 0 59406 27000.00000 0 8938824.015 -16089640.004 -17590690.792 10 0 59406 27900.00000 0 8849702.934 -13791095.252 -19485470.857 10 0 59406 28800.00000 0 8941524.550 -11282338.977 -20999654.270 10 0 59406 29700.00000 0 9236365.795 -8626904.686 -22103715.656 10 0 59406 30600.00000 0 9744587.343 -5892699.619 -22776188.689 10 0 59406 31500.00000 0 10464276.803 -3149374.793 -23004083.400 10 0 59406 32400.00000 0 11381230.804 -465632.507 -22783131.945 10 0 59406 33300.00000 0 12469476.306 2093415.202 -22117858.725 10 0 59406 34200.00000 0 13692308.152 4468726.238 -21021474.565 10 0 59406 35100.00000 0 15003797.742 6609542.979 -19515598.405 10 0 59406 36000.00000 0 16350707.736 8475250.120 -17629813.423 10 0 59406 36900.00000 0 17674730.546 10036799.905 -15401067.881 10 0 59406 37800.00000 0 18914955.002 11277647.652 -12872933.993 10 0 59406 38700.00000 0 20010456.325 12194161.482 -10094740.715 10 0 59406 39600.00000 0 20902899.830 12795492.412 -7120598.794 10 0 59406 40500.00000 0 21539048.788 13102913.858 -4008338.145 10 0 59406 41400.00000 0 21873071.459 13148661.629 -818379.040 10 0 59406 42300.00000 0 21868551.291 12974326.158 2387440.386 10 0 59406 43200.00000 0 21500117.190 12628866.965 5547057.488 10 0 59406 44100.00000 0 20754626.980 12166334.563 8599376.557 10 0 59406 45000.00000 0 19631855.972 11643396.428 11485435.967 10 0 59406 45900.00000 0 18144663.186 11116771.175 14149529.665 10 0 59406 46800.00000 0 16318629.175 10640678.086 16540262.922 10 0 59406 47700.00000 0 14191180.977 10264407.968 18611523.684 10 0 59406 48600.00000 0 11810240.359 10030115.746 20323352.795 10 0 59406 49500.00000 0 9232450.499 9970925.830 21642698.277 10 0 59406 50400.00000 0 6521053.135 10109428.301 22544040.827 10 0 59406 51300.00000 0 3743501.938 10456627.999 23009879.929 10 0 59406 52200.00000 0 968908.305 11011390.288 23031072.115 10 0 59406 53100.00000 0 -1734577.367 11760407.231 22607015.130 10 0 59406 54000.00000 0 -4302343.241 12678686.912 21745674.076 10 0 59406 54900.00000 0 -6675748.060 13730547.468 20463447.950 10 0 59406 55800.00000 0 -8804308.538 14871076.734 18784877.486 10 0 59406 56700.00000 0 -10647552.476 16047999.102 16742197.802 10 0 59406 57600.00000 0 -12176460.926 17203874.034 14374742.033 10 0 59406 58500.00000 0 -13374438.880 18278536.214 11728205.019 10 0 59406 59400.00000 0 -14237773.042 19211676.433 8853778.977 10 0 59406 60300.00000 0 -14775556.160 19945455.376 5807175.879 10 0 59406 61200.00000 0 -15009079.558 20427039.943 2647554.245 10 0 59406 62100.00000 0 -14970718.056 20610953.959 -563629.569 10 0 59406 63000.00000 0 -14702353.290 20461142.004 -3763823.217 10 0 59406 63900.00000 0 -14253401.504 19952656.483 -6890609.069 10 0 59406 64800.00000 0 -13678529.517 19072893.665 -9882938.480 10 0 59406 65700.00000 0 -13035156.436 17822323.358 -12682343.673 10 0 59406 66600.00000 0 -12380848.546 16214678.627 -15234101.386 10 0 59406 67500.00000 0 -11770719.783 14276595.233 -17488323.400 10 0 59406 68400.00000 0 -11254950.221 12046714.336 -19400950.582 10 0 59406 69300.00000 0 -10876529.952 9574285.416 -20934629.203 10 0 59406 70200.00000 0 -10669325.927 6917327.963 -22059451.120 10 0 59406 71100.00000 0 -10656555.071 4140429.562 -22753542.546 10 0 59406 72000.00000 0 -10849729.205 1312273.602 -23003489.596 10 0 59406 72900.00000 0 -11248116.566 -1496998.811 -22804592.574 10 0 59406 73800.00000 0 -11838742.267 -4218481.498 -22160944.709 10 0 59406 74700.00000 0 -12596926.574 -6787137.098 -21085334.902 10 0 59406 75600.00000 0 -13487336.797 -9144262.109 -19598977.720 10 0 59406 76500.00000 0 -14465506.619 -11239680.683 -17731077.425 10 0 59406 77400.00000 0 -15479756.889 -13033576.706 -15518236.168 10 0 59406 78300.00000 0 -16473435.112 -14497889.655 -13003719.508 10 0 59406 79200.00000 0 -17387377.755 -15617218.471 -10236595.020 10 0 59406 80100.00000 0 -18162490.499 -16389198.684 -7270762.225 10 0 59406 81000.00000 0 -18742337.182 -16824340.375 -4163893.830 10 0 59406 81900.00000 0 -19075628.397 -16945337.198 -976309.676 10 0 59406 82800.00000 0 -19118505.508 -16785878.561 2230194.111 10 0 59406 83700.00000 0 -18836524.990 -16389017.624 5393537.972 10 0 59406 84600.00000 0 -18206260.956 -15805165.693 8452550.979 10 0 59406 85500.00000 0 -17216460.000 -15089798.581 11348139.675 99